EW4524 Weather Reports


time (UTC)temp
F
wind
direction
speed
knots
gust
knots
rain 1hr
in
rain 24hr
in
rain mn
in
humidity
%
barometer
mb
20260510103021 54 67 3.5 9.6 0.02 0.35 0.02 86 1010.1
20260510101518 55 78 3.5 11.3 0.00 0.33 0.00 83 1010.0
20260510100017 56 61 6.1 9.6 0.00 0.33 0.00 80 1009.9
20260510094518 56 50 1.7 7.0 0.00 0.33 0.00 79 1009.8
20260510093020 57 62 3.5 8.7 0.00 0.33 0.00 78 1009.6
20260510091516 57 61 6.1 11.3 0.00 0.33 0.00 77 1009.4
20260510090022 58 42 6.1 12.2 0.00 0.33 0.00 75 1009.3
20260510084517 58 71 6.1 11.3 0.00 0.33 0.00 77 1009.3
20260510083012 57 67 7.0 13.0 0.00 0.33 0.00 78 1009.4
20260510081508 57 93 6.1 9.6 0.00 0.33 0.00 78 1009.5
20260510080010 57 130 6.1 11.3 0.00 0.33 0.00 78 1009.4
20260510074505 56 59 5.2 13.0 0.00 0.33 0.00 81 1009.3
20260510073002 55 19 5.2 9.6 0.00 0.33 0.00 83 1009.3
20260510071600 55 15 3.5 8.7 0.00 0.33 0.00 85 1009.4
20260510070057 54 51 4.3 8.7 0.00 0.33 0.00 86 1009.3
20260510064605 54 67 7.0 11.3 0.00 0.33 0.00 86 1009.3
20260510063053 54 47 2.6 13.0 0.00 0.33 0.00 87 1009.3
20260510061551 54 68 4.3 9.6 0.00 0.33 0.00 87 1009.3
20260510060047 54 58 1.7 9.6 0.00 0.33 0.00 89 1009.2
20260510054549 54 26 5.2 10.4 0.00 0.33 0.00 89 1009.0
20260510053044 54 57 4.3 7.8 0.00 0.33 0.00 90 1008.8
20260510051542 54 58 1.7 7.0 0.00 0.33 0.00 91 1008.8
20260510050041 54 43 2.6 6.1 0.00 0.33 0.00 91 1008.7
20260510044555 54 18 0.9 7.0 0.00 0.33 0.00 91 1008.6
20260510043039 54 9 1.7 7.0 0.00 0.33 0.00 91 1008.6
20260510041538 54 33 2.6 6.1 0.00 0.33 0.00 91 1008.7
20260510040035 54 50 0.9 7.0 0.00 0.33 0.00 91 1008.9
20260510034535 54 55 2.6 6.1 0.00 0.33 0.00 91 1009.0
20260510033033 54 20 3.5 7.0 0.00 0.33 0.00 91 1008.9
20260510031534 54 50 3.5 8.7 0.00 0.33 0.00 92 1009.1
20260510030036 54 57 1.7 8.7 0.00 0.33 0.00 92 1009.2
20260510024527 54 10 1.7 7.0 0.00 0.33 0.00 92 1009.2
20260510023026 54 5 1.7 7.0 0.00 0.33 0.00 91 1009.2
20260510021527 54 44 1.7 6.1 0.00 0.33 0.00 91 1009.4
20260510020026 54 5 0.9 4.3 0.00 0.33 0.00 91 1009.5
20260510014521 54 360 0.9 6.1 0.00 0.33 0.00 91 1009.5
20260510013023 54 34 1.7 4.3 0.00 0.33 0.00 90 1009.7
20260510011516 54 360 1.7 6.1 0.00 0.33 0.00 90 1009.9
20260510010016 54 333 1.7 4.3 0.00 0.33 0.00 90 1010.1
20260510004512 54 355 0.0 3.5 0.00 0.33 0.00 89 1010.3
20260510003021 54 44 0.0 3.5 0.00 0.33 0.00 89 1010.5
20260510001509 54 44 0.0 2.6 0.00 0.33 0.00 88 1010.6
20260510000008 55 11 0.9 4.3 0.00 0.33 0.00 88 1010.9
20260509234512 55 22 0.0 5.2 0.00 0.33 0.00 87 1011.1
20260509233004 55 43 0.9 2.6 0.00 0.33 0.00 86 1011.1
20260509231504 56 94 0.9 4.3 0.00 0.33 0.00 85 1011.1
20260509230001 56 94 0.9 4.3 0.00 0.33 0.00 86 1011.2
20260509224602 56 94 0.0 4.3 0.00 0.33 0.00 86 1011.3
20260509223059 56 82 0.9 7.0 0.00 0.33 0.00 86 1011.3
20260509221556 56 67 3.5 7.8 0.00 0.33 0.00 85 1011.2
20260509220057 57 74 1.7 5.2 0.00 0.33 0.00 86 1011.5
20260509214553 57 69 1.7 6.1 0.00 0.33 0.33 86 1011.7
20260509213053 57 71 2.6 8.7 0.00 0.33 0.33 86 1011.8
20260509211555 57 84 2.6 8.7 0.00 0.33 0.33 87 1011.7
20260509210052 57 89 6.1 10.4 0.00 0.33 0.33 86 1011.6
20260509204551 58 48 4.3 7.8 0.04 0.33 0.33 87 1011.8
20260509203114 58 123 2.6 7.0 0.07 0.33 0.33 88 1011.9
20260509201556 58 107 1.7 4.3 0.20 0.33 0.33 88 1011.9
20260509200056 57 38 0.0 5.2 0.26 0.33 0.33 87 1011.6
20260509194548 58 265 1.7 4.3 0.24 0.28 0.28 86 1011.7
20260509193054 58 49 0.9 6.1 0.24 0.26 0.26 84 1011.5
20260509191556 59 105 1.7 6.1 0.13 0.13 0.13 89 1012.0
20260509190044 59 207 2.6 7.0 0.07 0.07 0.07 86 1011.9
20260509184542 60 235 4.3 8.7 0.06 0.06 0.06 82 1011.1
20260509183044 62 344 1.7 5.2 0.02 0.02 0.02 76 1010.6
20260509181540 64 355 0.9 7.8 0.00 0.00 0.00 71 1010.3
20260509180039 65 360 2.6 7.0 0.00 0.00 0.00 67 1010.1
20260509174539 66 28 3.5 7.8 0.00 0.00 0.00 65 1010.0
20260509173039 66 71 2.6 8.7 0.00 0.00 0.00 64 1010.0
20260509171538 67 32 3.5 8.7 0.00 0.00 0.00 62 1010.0
20260509170038 69 20 4.3 8.7 0.00 0.00 0.00 59 1010.0
20260509164538 69 63 4.3 10.4 0.00 0.00 0.00 57 1009.9
20260509163035 71 72 3.5 8.7 0.00 0.00 0.00 52 1010.0
20260509161536 72 33 4.3 7.8 0.00 0.00 0.00 49 1010.2
20260509160034 72 77 4.3 12.2 0.00 0.00 0.00 52 1010.1
20260509154531 72 67 5.2 12.2 0.00 0.00 0.00 51 1010.3
20260509153031 71 69 4.3 9.6 0.00 0.00 0.00 53 1010.4
20260509151529 72 63 3.5 8.7 0.00 0.00 0.00 54 1010.5
20260509150027 72 110 6.1 10.4 0.00 0.00 0.00 53 1010.5
20260509144532 72 70 2.6 8.7 0.00 0.00 0.00 54 1010.7
20260509143026 72 90 3.5 8.7 0.00 0.00 0.00 50 1010.8
20260509141524 72 95 4.3 11.3 0.00 0.00 0.00 51 1010.9
20260509140022 72 12 4.3 9.6 0.00 0.00 0.00 51 1011.1
20260509134521 71 113 0.9 8.7 0.00 0.00 0.00 52 1011.2
20260509133022 71 124 3.5 9.6 0.00 0.00 0.00 52 1011.1
20260509131519 71 109 3.5 7.8 0.00 0.00 0.00 52 1011.3
20260509130030 71 102 2.6 11.3 0.00 0.00 0.00 52 1011.3
20260509124517 72 117 5.2 9.6 0.00 0.00 0.00 51 1011.5
20260509123019 71 93 2.6 7.8 0.00 0.00 0.00 50 1011.4
20260509121513 71 76 2.6 10.4 0.00 0.00 0.00 52 1011.5
20260509120011 69 75 5.2 8.7 0.00 0.00 0.00 53 1011.6
20260509114510 69 107 3.5 10.4 0.00 0.00 0.00 53 1011.7
20260509113011 70 103 6.1 13.0 0.00 0.00 0.00 52 1011.6
20260509111506 69 69 5.2 10.4 0.00 0.00 0.00 55 1011.5
20260509110005 68 138 3.5 12.2 0.00 0.00 0.00 57 1011.9
20260509104501 68 110 4.3 11.3 0.00 0.00 0.00 55 1012.0